Location: Little Suamico
(44.7175°N, 88.0093°W)
Time: 19:04:32
(UTC+00:00)

X-37B - Pass Details

Date: 24 April 2021
Orbit: 386 x 389 km, 45.0° (Epoch: 08 May)

Event Time Altitude Azimuth Distance (km) Brightness Sun altitude
Exits shadow 08:27:01 39° 82° (E) 599 1.8 -22.2°
Drops below altitude 10° 08:29:09 10° 87° (E) 1,415 4.0 -22.0°
Sets 08:31:14 0° 88° (E) 2,268 5.1 -21.7°
